SDM6168 ULLI-UUEE

Flight info

Callsign SDM6168
Flight time N/A
Altitude 37000
Route SUGIN1D/10L SUGIN T873 NIRGI T73 NAMIN NAMIN3E
Aircraft A319/M-SDE3FGHIRWY/LB1

Departure

Time N/A
Airport Pulkovo Airport (ULLI)

Arrival

Time 2026-05-07 18:58
Airport Sheremetyevo International Airport (UUEE)
Time Latitude Longitude Altitude Speed Heading
2026-05-07 18:02 59.56933 31.86699 24255 ft 416 kts 108°
2026-05-07 18:02 59.56090 31.92182 24751 ft 419 kts 108°
2026-05-07 18:03 59.55238 31.97705 25240 ft 422 kts 108°
2026-05-07 18:03 59.54384 32.03216 25720 ft 425 kts 108°
2026-05-07 18:03 59.53300 32.08656 26188 ft 427 kts 118°
2026-05-07 18:03 59.51728 32.13622 26648 ft 427 kts 129°
2026-05-07 18:04 59.49750 32.17974 27108 ft 428 kts 136°
2026-05-07 18:04 59.47651 32.22066 27555 ft 431 kts 138°
2026-05-07 18:04 59.45488 32.26200 27991 ft 434 kts 138°
2026-05-07 18:04 59.43329 32.30332 28423 ft 437 kts 137°
2026-05-07 18:05 59.41157 32.34512 28915 ft 438 kts 137°
2026-05-07 18:05 59.38991 32.38695 29471 ft 438 kts 137°
2026-05-07 18:05 59.36832 32.42868 29928 ft 440 kts 137°
2026-05-07 18:05 59.34650 32.47087 30339 ft 443 kts 137°
2026-05-07 18:06 59.32478 32.51283 30737 ft 446 kts 137°
2026-05-07 18:06 59.30257 32.55566 31135 ft 449 kts 137°
2026-05-07 18:06 59.28041 32.59833 31568 ft 451 kts 137°
2026-05-07 18:06 59.25808 32.64127 32111 ft 449 kts 137°
2026-05-07 18:07 59.23597 32.68377 32655 ft 447 kts 138°
2026-05-07 18:07 59.21388 32.72624 33168 ft 446 kts 138°
2026-05-07 18:07 59.19185 32.76848 33651 ft 445 kts 138°
2026-05-07 18:07 59.17002 32.81020 34113 ft 445 kts 138°
2026-05-07 18:08 59.14794 32.85228 34569 ft 444 kts 138°
2026-05-07 18:08 59.12588 32.89422 35013 ft 443 kts 138°
2026-05-07 18:08 59.10407 32.93563 35429 ft 443 kts 138°
2026-05-07 18:08 59.08208 32.97728 35785 ft 444 kts 138°
2026-05-07 18:09 59.05978 33.01944 36103 ft 445 kts 139°
2026-05-07 18:09 59.03770 33.06108 36406 ft 446 kts 139°
2026-05-07 18:09 59.01543 33.10300 36697 ft 448 kts 139°
2026-05-07 18:09 58.99301 33.14511 36932 ft 450 kts 139°
2026-05-07 18:10 58.97080 33.18674 36974 ft 452 kts 139°
2026-05-07 18:10 58.92549 33.27137 36985 ft 453 kts 139°
2026-05-07 18:11 58.88015 33.35569 36987 ft 454 kts 139°
2026-05-07 18:11 58.83459 33.43967 36988 ft 454 kts 139°
2026-05-07 18:12 58.78934 33.52304 36988 ft 454 kts 139°
2026-05-07 18:12 58.74379 33.60685 36988 ft 454 kts 139°
2026-05-07 18:13 58.69815 33.69061 36988 ft 454 kts 140°
2026-05-07 18:13 58.65251 33.77426 36988 ft 454 kts 140°
2026-05-07 18:14 58.60716 33.85689 36988 ft 454 kts 140°
2026-05-07 18:14 58.56125 33.94016 36988 ft 454 kts 140°
2026-05-07 18:15 58.51574 34.02237 36988 ft 454 kts 140°
2026-05-07 18:15 58.46978 34.10508 36988 ft 453 kts 140°
2026-05-07 18:16 58.42388 34.18739 36988 ft 453 kts 140°
2026-05-07 18:16 58.37828 34.26883 36988 ft 453 kts 140°
2026-05-07 18:17 58.33209 34.35104 36988 ft 453 kts 140°
2026-05-07 18:17 58.28620 34.43244 36988 ft 453 kts 140°
2026-05-07 18:18 58.24013 34.51383 36989 ft 454 kts 140°
2026-05-07 18:18 58.19362 34.59401 36978 ft 452 kts 143°
2026-05-07 18:19 58.14558 34.67025 36947 ft 452 kts 143°
2026-05-07 18:19 58.09778 34.74615 36913 ft 452 kts 143°
2026-05-07 18:20 58.04978 34.82195 36881 ft 452 kts 143°
2026-05-07 18:20 58.00128 34.89809 36853 ft 454 kts 143°
2026-05-07 18:20 57.97709 34.93595 36606 ft 455 kts 143°
2026-05-07 18:21 57.95289 34.97379 36356 ft 455 kts 142°
2026-05-07 18:21 57.92855 35.01179 36105 ft 455 kts 142°
2026-05-07 18:21 57.90429 35.04959 35856 ft 455 kts 142°
2026-05-07 18:21 57.88153 35.09151 35596 ft 458 kts 130°
2026-05-07 18:22 57.86435 35.14125 35349 ft 460 kts 116°
2026-05-07 18:22 57.85632 35.17789 35186 ft 461 kts 107°
2026-05-07 18:22 57.84925 35.25649 34855 ft 459 kts 89°
2026-05-07 18:22 57.85045 35.31633 34611 ft 459 kts 86°
2026-05-07 18:23 57.85025 35.37584 34361 ft 460 kts 90°
2026-05-07 18:23 57.84885 35.43587 34109 ft 460 kts 91°
2026-05-07 18:23 57.84719 35.49545 33860 ft 461 kts 91°
2026-05-07 18:23 57.84545 35.55590 33606 ft 461 kts 91°
2026-05-07 18:24 57.84370 35.61587 33357 ft 462 kts 91°
2026-05-07 18:24 57.84197 35.67569 33104 ft 462 kts 92°
2026-05-07 18:24 57.84024 35.73612 32899 ft 463 kts 92°
2026-05-07 18:25 57.83675 35.85655 32860 ft 462 kts 92°
2026-05-07 18:25 57.83322 35.97638 32855 ft 463 kts 92°
2026-05-07 18:26 57.82962 36.09687 32856 ft 463 kts 92°
2026-05-07 18:26 57.82597 36.21733 32868 ft 462 kts 92°
2026-05-07 18:27 57.82232 36.33734 32884 ft 462 kts 92°
2026-05-07 18:27 57.81867 36.45679 32892 ft 462 kts 92°
2026-05-07 18:28 57.81491 36.57733 32894 ft 462 kts 92°
2026-05-07 18:28 57.81113 36.69658 32894 ft 462 kts 92°
2026-05-07 18:29 57.80732 36.81657 32890 ft 462 kts 92°
2026-05-07 18:29 57.80346 36.93732 32889 ft 462 kts 92°
2026-05-07 18:30 57.79948 37.05670 32890 ft 461 kts 92°
2026-05-07 18:30 57.79480 37.17602 32911 ft 457 kts 92°
2026-05-07 18:31 57.78958 37.29357 32935 ft 454 kts 92°
2026-05-07 18:31 57.78416 37.41138 32954 ft 454 kts 92°
2026-05-07 18:32 57.77872 37.52931 32958 ft 454 kts 92°
2026-05-07 18:32 57.77324 37.64670 32961 ft 454 kts 92°
2026-05-07 18:33 57.76780 37.76417 32961 ft 454 kts 93°
2026-05-07 18:33 57.76225 37.88186 32961 ft 454 kts 95°
2026-05-07 18:34 57.74922 37.99722 32963 ft 456 kts 102°
2026-05-07 18:34 57.72482 38.10667 32284 ft 461 kts 121°
2026-05-07 18:34 57.70578 38.15527 31307 ft 469 kts 131°
2026-05-07 18:35 57.68254 38.19789 30386 ft 473 kts 140°
2026-05-07 18:35 57.65597 38.23306 29790 ft 468 kts 150°
2026-05-07 18:35 57.62733 38.25985 29308 ft 461 kts 159°
2026-05-07 18:35 57.59728 38.27803 28811 ft 453 kts 168°
2026-05-07 18:36 57.56660 38.28744 28270 ft 446 kts 177°
2026-05-07 18:36 57.53593 38.28824 27698 ft 440 kts 186°
2026-05-07 18:36 57.50589 38.28095 27131 ft 433 kts 192°
2026-05-07 18:36 57.47635 38.27014 26554 ft 429 kts 194°
2026-05-07 18:37 57.44766 38.25908 25982 ft 426 kts 194°
2026-05-07 18:37 57.41892 38.24806 25407 ft 422 kts 194°
2026-05-07 18:37 57.39029 38.23722 24836 ft 419 kts 193°
2026-05-07 18:37 57.36206 38.22669 24276 ft 415 kts 193°
2026-05-07 18:38 57.33405 38.21632 23717 ft 412 kts 193°
2026-05-07 18:38 57.30599 38.20600 23164 ft 409 kts 193°
2026-05-07 18:38 57.27850 38.19593 22630 ft 405 kts 193°
2026-05-07 18:38 57.25100 38.18590 22089 ft 402 kts 193°
2026-05-07 18:39 57.22386 38.17600 21568 ft 398 kts 193°
2026-05-07 18:39 57.19700 38.16623 21052 ft 395 kts 193°
2026-05-07 18:39 57.17010 38.15648 20537 ft 391 kts 193°
2026-05-07 18:39 57.14353 38.14685 20028 ft 388 kts 193°
2026-05-07 18:40 57.11748 38.13744 19531 ft 385 kts 193°
2026-05-07 18:40 57.09137 38.12801 18966 ft 384 kts 193°
2026-05-07 18:40 57.06502 38.11851 18442 ft 382 kts 193°
2026-05-07 18:40 57.03928 38.10925 17965 ft 379 kts 193°
2026-05-07 18:41 57.01349 38.09997 17497 ft 376 kts 193°
2026-05-07 18:41 56.98825 38.09091 17044 ft 373 kts 193°
2026-05-07 18:41 56.96284 38.08180 16591 ft 370 kts 193°
2026-05-07 18:41 56.93769 38.07280 16154 ft 367 kts 193°
2026-05-07 18:42 56.91275 38.06388 15743 ft 364 kts 193°
2026-05-07 18:42 56.88820 38.05512 15347 ft 361 kts 193°
2026-05-07 18:42 56.86367 38.04642 14956 ft 357 kts 193°
2026-05-07 18:42 56.83966 38.03793 14573 ft 354 kts 193°
2026-05-07 18:43 56.81570 38.02944 14191 ft 350 kts 193°
2026-05-07 18:43 56.79187 38.02100 13810 ft 347 kts 193°
2026-05-07 18:43 56.76822 38.01262 13431 ft 343 kts 193°
2026-05-07 18:43 56.74504 38.00441 13059 ft 340 kts 193°
2026-05-07 18:44 56.72198 37.99625 12686 ft 337 kts 193°
2026-05-07 18:44 56.69913 37.98817 12315 ft 334 kts 193°
2026-05-07 18:44 56.67668 37.98025 11949 ft 330 kts 193°
2026-05-07 18:44 56.65414 37.97229 11571 ft 328 kts 193°
2026-05-07 18:45 56.63211 37.96452 11188 ft 326 kts 193°
2026-05-07 18:45 56.60993 37.95670 10797 ft 323 kts 193°
2026-05-07 18:45 56.58805 37.94900 10409 ft 321 kts 192°
2026-05-07 18:45 56.56632 37.94138 10079 ft 316 kts 192°
2026-05-07 18:46 56.54732 37.93473 10017 ft 303 kts 192°
2026-05-07 18:46 56.52713 37.92770 9854 ft 295 kts 192°
2026-05-07 18:46 56.50731 37.92077 9520 ft 292 kts 192°
2026-05-07 18:46 56.49578 37.91673 9330 ft 291 kts 192°
2026-05-07 18:47 56.48093 37.91152 9086 ft 290 kts 192°
2026-05-07 18:47 56.46108 37.90456 8763 ft 287 kts 191°
2026-05-07 18:47 56.44174 37.89785 8456 ft 285 kts 191°
2026-05-07 18:47 56.42244 37.89113 8153 ft 283 kts 191°
2026-05-07 18:48 56.40319 37.88442 7852 ft 281 kts 191°
2026-05-07 18:48 56.38411 37.87779 7556 ft 278 kts 190°
2026-05-07 18:48 56.36511 37.87125 7259 ft 276 kts 190°
2026-05-07 18:48 56.34649 37.86479 6970 ft 274 kts 190°
2026-05-07 18:49 56.32781 37.85828 6683 ft 272 kts 190°
2026-05-07 18:49 56.30936 37.85189 6401 ft 270 kts 189°
2026-05-07 18:49 56.29091 37.84555 6115 ft 268 kts 189°
2026-05-07 18:49 56.27264 37.83931 5825 ft 266 kts 189°
2026-05-07 18:50 56.25468 37.83308 5549 ft 264 kts 189°
2026-05-07 18:50 56.23674 37.82690 5272 ft 262 kts 189°
2026-05-07 18:50 56.21902 37.82085 4985 ft 261 kts 189°
2026-05-07 18:50 56.20120 37.81472 4703 ft 259 kts 189°
2026-05-07 18:51 56.18357 37.80873 4416 ft 259 kts 190°
2026-05-07 18:51 56.16598 37.80266 4149 ft 256 kts 189°
2026-05-07 18:51 56.15286 37.79807 4126 ft 245 kts 189°
2026-05-07 18:51 56.13977 37.79356 4101 ft 235 kts 189°
2026-05-07 18:52 56.12410 37.78818 4063 ft 222 kts 189°
2026-05-07 18:52 56.10920 37.78313 4028 ft 221 kts 189°
2026-05-07 18:52 56.09398 37.77765 3986 ft 222 kts 192°
2026-05-07 18:52 56.07927 37.77021 3980 ft 223 kts 196°
2026-05-07 18:53 56.06488 37.76205 3976 ft 210 kts 197°
2026-05-07 18:53 56.05112 37.75419 3814 ft 205 kts 197°
2026-05-07 18:53 56.03773 37.74654 3588 ft 203 kts 197°
2026-05-07 18:53 56.02447 37.73793 3374 ft 201 kts 211°
2026-05-07 18:54 56.01534 37.71965 3276 ft 200 kts 248°
2026-05-07 18:54 56.01156 37.69563 3223 ft 201 kts 260°
2026-05-07 18:54 56.00928 37.67122 3076 ft 202 kts 259°
2026-05-07 18:54 56.00645 37.64719 2817 ft 191 kts 257°
2026-05-07 18:55 56.00321 37.62478 2558 ft 180 kts 255°
2026-05-07 18:55 56.00008 37.60440 2457 ft 158 kts 254°
2026-05-07 18:55 55.99730 37.58648 2277 ft 143 kts 253°
2026-05-07 18:55 55.99474 37.56974 2080 ft 137 kts 252°
2026-05-07 18:56 55.99215 37.55333 1883 ft 137 kts 252°
2026-05-07 18:56 55.98963 37.53706 1692 ft 137 kts 253°
2026-05-07 18:56 55.98723 37.52053 1531 ft 136 kts 253°
2026-05-07 18:56 55.98468 37.50431 1339 ft 137 kts 253°
2026-05-07 18:57 55.98229 37.48767 1171 ft 137 kts 253°
2026-05-07 18:57 55.97987 37.47156 998 ft 135 kts 253°
2026-05-07 18:57 55.97742 37.45513 804 ft 135 kts 254°
2026-05-07 18:57 55.97497 37.43896 658 ft 133 kts 253°
2026-05-07 18:58 55.97279 37.42456 638 ft 106 kts 254°
2026-05-07 18:58 55.97124 37.41387 638 ft 66 kts 255°
2026-05-07 18:58 55.97021 37.40684 638 ft 49 kts 256°
2026-05-07 18:58 55.96961 37.40278 637 ft 14 kts 256°
2026-05-07 18:59 55.96942 37.40128 637 ft 10 kts 271°
2026-05-07 18:59 55.96988 37.40042 637 ft 11 kts 346°
2026-05-07 18:59 55.97037 37.40018 637 ft 7 kts 345°
2026-05-07 18:59 55.97100 37.39988 637 ft 11 kts 346°
2026-05-07 19:00 55.97190 37.39946 637 ft 15 kts 346°
2026-05-07 19:00 55.97290 37.39898 637 ft 12 kts 346°
2026-05-07 19:00 55.97377 37.39857 637 ft 13 kts 345°
2026-05-07 19:00 55.97443 37.39823 637 ft 9 kts 342°
2026-05-07 19:01 55.97493 37.39795 637 ft 5 kts 345°
2026-05-07 19:01 55.97535 37.39775 637 ft 6 kts 346°
2026-05-07 19:01 55.97580 37.39760 637 ft 6 kts
2026-05-07 19:01 55.97612 37.39825 637 ft 8 kts 74°
2026-05-07 19:02 55.97628 37.39929 637 ft 9 kts 75°
2026-05-07 19:02 55.97646 37.40050 637 ft 10 kts 76°
2026-05-07 19:02 55.97662 37.40160 637 ft 9 kts 76°
2026-05-07 19:02 55.97680 37.40284 637 ft 10 kts 75°
2026-05-07 19:03 55.97690 37.40346 637 ft 0 kts 75°
2026-05-07 19:05 55.97689 37.40345 638 ft 1 kts 75°
2026-05-07 19:05 55.97689 37.40319 638 ft 2 kts 104°
2026-05-07 19:05 55.97694 37.40295 638 ft 2 kts 128°
2026-05-07 19:06 55.97705 37.40277 638 ft 2 kts 152°
2026-05-07 19:06 55.97734 37.40262 638 ft 2 kts 165°
2026-05-07 19:06 55.97738 37.40260 638 ft 0 kts 166°